TIME,�g��[���C[MJ/h],����[MJ/h],�Ɩ�[MJ/h],�~�[[MJ/h],�①��[MJ/h],��y���[MJ/h],�Ǝ��q��[MJ/h],���̑��s��[MJ/h],�u�����`������[MJ/h]
2004/4/1 0:00,0,0,0.74448,0.03168,0.33264,0.396,0.07776,0,0.02592
2004/4/1 0:15,0,0,0.75456,0.0216,0,0.396,0.11376,0,0.06768
2004/4/1 0:30,0,0,0.75024,0.03024,0.31536,0.3888,0.05184,0,0.03312
2004/4/1 0:45,0,0,0.2304,0.02592,0.29808,0.23472,0.10656,0,0.06768
2004/4/1 1:00,0,0,0.06912,0.0216,0,0.19584,0.08064,0,0.09936
2004/4/1 1:15,0,0,0.07056,0.03168,0.39744,0.1944,0.08064,0,0.07344
2004/4/1 1:30,0,0,0.06768,0.0288,0.29952,0.1944,0.08064,0,0.06048
2004/4/1 1:45,0,0,0.07056,0.0216,0,0.19728,0.08208,0,0.09504
2004/4/1 2:00,0,0,0.06912,0.02448,0.35424,0.1944,0.08352,0,0.06768
2004/4/1 2:15,0,0,0.06768,0.03168,0.32832,0.1944,0.08208,0,0.07056
2004/4/1 2:30,0,0,0.07056,0.0216,0,0.1944,0.08208,0,0.09792
2004/4/1 2:45,0,0,0.0648,0.02448,0.35712,0.1944,0.08352,0,0.06912
2004/4/1 3:00,0,0,0.06912,0.02592,0.31968,0.1944,0.08496,0,0.07056
2004/4/1 3:15,0,0,0.06768,0.0216,0,0.1944,0.04896,0,0.11376
2004/4/1 3:30,0,0,0.06768,0.02448,0.34272,0.1944,0.08784,0,0.05904
2004/4/1 3:45,0,0,0.07056,0.02736,0.28368,0.19584,0.08352,0,0.07776
2004/4/1 4:00,0,0,0.06768,0.0216,0,0.19728,0.08208,0,0.10512
2004/4/1 4:15,0,0,0.07056,0.02592,0.4032,0.1944,0.08352,0,0.06336
2004/4/1 4:30,0,0,0.06624,0.02592,0.24624,0.1944,0.08064,0,0.06912
2004/4/1 4:45,0,0,0.072,0.0216,0,0.1944,0.08496,0,0.10368
2004/4/1 5:00,0,0,0.07488,0.03024,0.40032,0.19584,0.08208,0,0.0504
2004/4/1 5:15,0,0,0.07344,0.02448,0.21456,0.1944,0.08352,0,0.08496
2004/4/1 5:30,0,0,0.0648,0.0216,0.00432,0.1944,0.08496,0,0.09216
2004/4/1 5:45,0,0,0.06768,0.02592,0.44928,0.19584,0.08352,0,0.05904
2004/4/1 6:00,0,0,0.07056,0.02448,0.21168,0.1944,0.08352,0,0.0648
2004/4/1 6:15,0,0,0.072,0.0216,0.0072,0.1944,0.08496,0,0.108
2004/4/1 6:30,0,0,0.29232,0.02592,0.4248,0.19584,0.0864,0,0.01872
2004/4/1 6:45,0.04608,0,0.68832,0.02736,0.40608,0.1944,0.08352,0,-0.02448
2004/4/1 7:00,0.1728,0,0.71424,0.02304,0.31104,0.2016,0.08064,0,-0.0072
2004/4/1 7:15,0.21168,0,0.73584,0.0216,0,0.1944,0.08352,0,0.0144
2004/4/1 7:30,0.108,0,0.73152,0.45648,0.3024,0.19584,0.0792,0,-0.0504
2004/4/1 7:45,0.108,0,0.684,1.02672,0.42768,0.1944,0.08208,0,-0.0792
2004/4/1 8:00,0.11952,0,0.68256,0.04896,0.2592,0.19584,0.49824,0,-0.0504
2004/4/1 8:15,0.0288,0,0.79632,0.80352,0,0.1944,0.86544,0,-0.05616
2004/4/1 8:30,0,0,0.56304,0.0216,0.35712,0.1944,0.29088,0,-0.02304
2004/4/1 8:45,0.0648,0,0.96624,0.04752,0.40896,0.1944,0.07776,0,-0.03744
2004/4/1 9:00,0.01728,0,0.52416,0.5112,0.23904,0.35424,0.08208,0,-0.06192
2004/4/1 9:15,0.02304,0,0.34272,0.38448,0.01728,0.44496,0.07776,0,-0.03456
2004/4/1 9:30,0.02448,0,0.34992,0.0288,0.37728,0.44352,0.08064,0,-0.02448
2004/4/1 9:45,0.02304,0,0.34128,0.0288,0.41904,0.44352,0.0792,0,-0.0288
2004/4/1 10:00,0.02448,0,0.34992,0.0216,0.57024,0.4392,0.11088,0,-0.072
2004/4/1 10:15,0.02448,0,0.3528,0.0288,0.56736,0.4464,0.04896,0,-0.0648
2004/4/1 10:30,0.02448,0,0.35136,0.02736,0.57312,0.43488,0.08784,0,-0.06912
2004/4/1 10:45,0.02448,0,0.35136,0.02592,0.45216,0.43776,0.0792,0,-0.01152
2004/4/1 11:00,0.02736,0,0.35856,0.02304,0.52704,0.44064,0.08352,0,-0.03744
2004/4/1 11:15,0.02592,0,0.35712,0.02736,0.49104,0.43632,0.0792,0,-0.03168
2004/4/1 11:30,0.00288,0,0.36288,0.03456,0.46944,0.40896,0.08208,0,-0.02736
2004/4/1 11:45,0,0,0.34416,0.02736,0.46368,0.4032,0.0864,0,-0.01152
2004/4/1 12:00,0,0,0.35712,0.02592,0.35568,0.39456,0.08208,0,-0.01728
2004/4/1 12:15,0,0,0.34992,0.0216,0,0.38736,0.08352,0,0.03168
2004/4/1 12:30,0,0,0.34848,0.02592,0.39744,0.36144,0.0792,0,-0.01584
2004/4/1 12:45,0,0,0.3528,0.02592,0.45792,0.38016,0.07776,0,-0.02016
2004/4/1 13:00,0,0,0.3888,0.02592,0.17712,0.37584,0.07632,0,0.01872
2004/4/1 13:15,0,0,0.35568,0.51696,0.10224,0.3816,0.0864,0,-0.06768
2004/4/1 13:30,0,0,0.34416,0.02448,0.46512,0.36576,0.07776,0,-0.02016
2004/4/1 13:45,0,0,0.34416,0.02592,0.43632,0.35712,0.08064,0,-0.0216
2004/4/1 14:00,0,0,0.34272,0.0216,0.04032,0.37584,0.08064,0,0.02592
2004/4/1 14:15,0,0,0.2376,0.02304,0.19872,0.39312,0.072,0,0.0144
2004/4/1 14:30,0,0,0.28512,0.02736,0.45648,0.28224,0.07632,0,-0.00576
2004/4/1 14:45,0,0,0.3456,0.02304,0.25344,0.1944,0.072,0,0.03744
2004/4/1 15:00,0,0,0.31248,0.0216,0,0.3672,0.07776,0,0.03168
2004/4/1 15:15,0,0,0.31536,0.0288,0.4536,0.39312,0.08208,0,-0.02304
2004/4/1 15:30,0,0,0.50112,0.02736,0.43632,0.21888,0.072,0,0.00432
2004/4/1 15:45,0,0,0.96192,0.0216,0.02448,0.1944,0.08064,0,0.06048
2004/4/1 16:00,0,0,0.96624,0.02736,0.2304,0.1944,0.07632,0,0.03312
2004/4/1 16:15,0,0,0.96336,0.02736,0.4464,0.1944,0.07488,0,0.01152
2004/4/1 16:30,0,0,0.9576,0.0216,0.21888,0.1944,0.072,0,0.04176
2004/4/1 16:45,0,0,0.97344,0.0216,0.0216,0.1944,0.07776,0,0.05328
2004/4/1 17:00,0,0,0.94896,0.03168,0.45504,0.19872,0.072,0,0.00288
2004/4/1 17:15,0,0,0.84384,0.02448,0.4248,0.4176,0.07632,0,-0.03024
2004/4/1 17:30,0,0,0.83664,0.02592,0.19728,0.42912,0.07632,0,0
2004/4/1 17:45,0,0,1.14048,0.0216,0.02736,0.4176,0.0432,0,-0.0216
2004/4/1 18:00,0,0,1.69344,0.03024,0.43632,0.41184,0.07776,0,-0.15408
2004/4/1 18:15,0.0432,0,1.94688,0.0288,0.42336,0.41904,0.07632,0,-0.24192
2004/4/1 18:30,0.108,0,2.13984,0.03312,0.4248,0.39888,0.07488,0,-0.2448
2004/4/1 18:45,0.108,0,2.64384,0.02736,0.41184,0.3888,0.07488,0,-0.24624
2004/4/1 19:00,0.108,0,2.3112,0.02592,0.43056,0.32832,0.07344,0,-0.22752
2004/4/1 19:15,0.108,0,1.836,0.02448,0.13968,0.1944,0.08064,0,-0.16848
2004/4/1 19:30,0.108,0,2.09808,0.0216,0.1296,0.1944,0.07344,0,-0.17712
2004/4/1 19:45,0.108,0,2.25792,0.03024,0.44208,0.1944,0.072,0,-0.22176
2004/4/1 20:00,0.0792,0,2.95776,0.02448,0.44208,0.21456,0.08064,0,-0.22032
2004/4/1 20:15,0,0,2.77488,0.0216,0.23616,0.43056,0.04464,0,-0.18864
2004/4/1 20:30,0.02016,0,2.9664,0.0216,0.0288,0.432,0.07776,0,-0.1944
2004/4/1 20:45,0.6552,0,2.78928,0.02736,0.45504,0.432,0.07776,0,-0.32688
2004/4/1 21:00,0.38592,0,2.5992,0.03888,0.45072,0.26928,0.0792,0,-0.26064
2004/4/1 21:15,0.3456,0,2.6712,0.02592,0.24624,0.1944,0.07488,0,-0.20016
2004/4/1 21:30,0.27936,0,2.63808,0.0216,0.02304,0.1944,0.07632,0,-0.15696
2004/4/1 21:45,0.108,0,2.04192,0.02448,0.46224,0.1944,0.07344,0,-0.11664
2004/4/1 22:00,0.1008,0,2.24928,0.03456,0.45072,0.1944,0.93744,0,-0.29952
2004/4/1 22:15,0.0792,0,2.29104,0.02304,0.2376,0.40032,0.07776,0,-0.2232
2004/4/1 22:30,0.108,0,2.27808,0.0216,0.0288,0.34704,0.49248,0,-0.22608
2004/4/1 22:45,0.0144,0,1.3536,0.03024,0.4536,0.1944,0.2664,0,-0.07056
2004/4/1 23:00,0,0,1.39104,0.45648,0.43632,0.1944,0.0792,0,-0.108
2004/4/1 23:15,0,0,1.18224,0.26928,0.24624,0.1944,0.08208,0,-0.07632
2004/4/1 23:30,0,0,0.95328,0.02304,0.03168,0.1944,0.07056,0,-0.04176
2004/4/1 23:45,0,0,0.58464,0.03024,0.44784,0.19872,0.07632,0,-0.04464
2004/4/2 0:00,0,0,0.16848,0.02736,0.44928,0.1944,0.0792,0,0.01872
2004/4/2 0:15,0,0,0.16848,0.03024,0.2232,0.1944,0.04464,0,0.04464
2004/4/2 0:30,0,0,0.17424,0.02304,0.05328,0.1944,0.07488,0,0.05184
2004/4/2 0:45,0,0,0.16992,0.02304,0.46368,0.1944,0.07776,0,0.01728
2004/4/2 1:00,0,0,0.16416,0.03312,0.45936,0.19584,0.07344,0,0.02592
2004/4/2 1:15,0,0,0.1728,0.036,0.44496,0.1944,0.07776,0,0.01872
2004/4/2 1:30,0,0,0.17424,0.0216,0,0.1944,0.07488,0,0.06192
2004/4/2 1:45,0,0,0.17136,0.02304,0.26208,0.19584,0.07488,0,0.04176
2004/4/2 2:00,0,0,0.16272,0.0216,0.47088,0.1944,0.07488,0,0.02016
2004/4/2 2:15,0,0,0.17568,0.03024,0.45936,0.19584,0.07632,0,0.01152
2004/4/2 2:30,0,0,0.16704,0.02448,0.15264,0.1944,0.08064,0,0.0576
2004/4/2 2:45,0,0,0.17568,0.02304,0.08784,0.19584,0.07488,0,0.06624
2004/4/2 3:00,0,0,0.1728,0.02592,0.46656,0.1944,0.07776,0,0.0144
2004/4/2 3:15,0,0,0.17568,0.03168,0.45792,0.1944,0.07488,0,0.01296
2004/4/2 3:30,0,0,0.17136,0.02448,0.21024,0.19584,0.0432,0,0.05472
2004/4/2 3:45,0,0,0.17424,0.0216,0.0072,0.1944,0.07776,0,0.072
2004/4/2 4:00,0,0,0.1728,0.02592,0.46512,0.1944,0.07776,0,0.0072
2004/4/2 4:15,0,0,0.17424,0.03312,0.45648,0.1944,0.07488,0,0.01728
2004/4/2 4:30,0,0,0.17136,0.03312,0.5184,0.19728,0.08064,0,-0.00432
2004/4/2 4:45,0,0,0.17712,0.02592,0.576,0.1944,0.07488,0,-0.0216
2004/4/2 5:00,0,0,0.1656,0.0216,0.57888,0.1944,0.07344,0,-0.02448
2004/4/2 5:15,0,0,0.17136,0.0288,0.45792,0.1944,0.08352,0,0.02448
2004/4/2 5:30,0,0,0.16416,0.02448,0.50688,0.1944,0.07632,0,0.0144
2004/4/2 5:45,0,0,0.17712,0.0216,0.4896,0.1944,0.0432,0,0.02592
2004/4/2 6:00,0,0,0.17136,0.02592,0.468,0.19584,0.08064,0,0.01728
2004/4/2 6:15,0,0,0.53424,2.0808,0.468,0.21456,0.07344,0,-0.05472
2004/4/2 6:30,0,0,0.6912,1.15776,0.45792,0.216,0.08064,0,-0.03744
2004/4/2 6:45,0.09216,0,0.65952,0.18432,0.072,0.1944,0.08352,0,0.01296
2004/4/2 7:00,0.1728,0,0.66528,0.08784,0.1872,0.20304,0.07632,0,0.0216
2004/4/2 7:15,0.16128,0,0.72288,1.944,0.4536,0.19584,0.08352,0,-0.0432
2004/4/2 7:30,0.1728,0,0.56448,0.79632,0.37152,0.1944,0.08064,0,0.01584
2004/4/2 7:45,0.2592,0,0.73008,0.5976,0.02592,0.1944,0.08352,0,-0.04608
2004/4/2 8:00,0.17712,0,1.11456,0.02592,0.32544,0.1944,0.108,0,-0.09504
2004/4/2 8:15,0.0216,0,0.98784,0.0288,0.4464,0.1944,0.08496,0,-0.07632
2004/4/2 8:30,0.108,0,1.20096,0.02592,0.2376,0.23184,0.08208,0,-0.08784
2004/4/2 8:45,0.0792,0,1.24272,0.0216,0,0.37872,0.22464,0,-0.10368
2004/4/2 9:00,0,0,1.03104,0.03312,0.42048,0.24336,0.62064,0,-0.13968
2004/4/2 9:15,0.01872,0,0.96336,0.02448,0.3312,0.4104,0.62208,0,-0.14688
2004/4/2 9:30,0.03168,0,0.96336,0.0216,0,0.43488,0.61776,0,-0.10944
2004/4/2 9:45,0.02592,0,0.96624,0.02736,0.37728,0.432,0.62064,0,-0.16992
2004/4/2 10:00,0.01872,0,0.96336,0.02736,0.4032,0.44784,0.58608,0,-0.16128
2004/4/2 10:15,0.02016,0,0.95328,0.0216,0,0.43056,0.61632,0,-0.11088
2004/4/2 10:30,0.02592,0,0.94896,0.02736,0.27792,0.43344,0.62064,0,-0.1512
2004/4/2 10:45,0.01728,0,0.95472,0.02736,0.43776,0.4392,0.61632,0,-0.1656
2004/4/2 11:00,0,0,0.9432,0.02304,0.05184,0.44784,0.61632,0,-0.10368
2004/4/2 11:15,0,0,1.40544,0.02448,0.18576,0.468,0.1512,0,-0.11232
2004/4/2 11:30,0.00864,0,1.50192,0.02448,0.4464,0.45072,0.0792,0,-0.16992
2004/4/2 11:45,0.02448,0,1.47312,0.02304,0.11952,0.42912,0.07488,0,-0.12384
2004/4/2 12:00,0.01152,0,1.49184,0.02304,0.13248,0.42336,0.07632,0,-0.11664
2004/4/2 12:15,0.00432,0,1.49616,0.5904,0.46944,0.40464,0.08064,0,-0.2808
2004/4/2 12:30,0.00288,0,1.48752,0.02448,0.20304,0.41472,0.07344,0,-0.1296
2004/4/2 12:45,0.02592,0,1.48608,0.02304,0.036,0.44064,0.07632,0,-0.11664
2004/4/2 13:00,0.02448,0,1.4976,0.02448,0.45504,0.44496,0.07632,0,-0.17712
2004/4/2 13:15,0.02304,0,1.4544,0.02736,0.42192,0.43632,0.07632,0,-0.1656
2004/4/2 13:30,0.02448,0,1.45728,0.02592,0.15264,0.44496,0.07776,0,-0.11664
2004/4/2 13:45,0.02448,0,1.48608,0.02304,0.06192,0.43776,0.0792,0,-0.13104
2004/4/2 14:00,0.0288,0,1.49328,0.03168,0.44496,0.432,0.08064,0,-0.17712
2004/4/2 14:15,0.02448,0,1.4832,0.02304,0.3096,0.43344,0.0432,0,-0.1512
2004/4/2 14:30,0,0,1.47168,0.0216,0,0.39888,0.07632,0,-0.09504
2004/4/2 14:45,0,0,1.48176,0.03168,0.37296,0.42336,0.07776,0,-0.15696
2004/4/2 15:00,0,0,1.48464,0.0288,0.43344,0.4176,0.07488,0,-0.16128
2004/4/2 15:15,0,0,1.4688,0.0216,0.0288,0.40176,0.07632,0,-0.10656
2004/4/2 15:30,0,0,1.4184,0.02448,0.216,0.40464,0.07488,0,-0.12384
2004/4/2 15:45,0,0,1.05552,0.03024,0.44064,0.40464,0.07056,0,-0.09648
2004/4/2 16:00,0,0,0.73728,0.02304,0.20448,0.41184,0.07776,0,-0.036
2004/4/2 16:15,0,0,0.73872,0.0216,0.04032,0.43056,0.0792,0,-0.0072
2004/4/2 16:30,0,0,0.82944,0.02736,0.48096,0.29088,0.06768,0,-0.06192
2004/4/2 16:45,0,0,0.9144,0.03168,0.49248,0.1944,0.05328,0,-0.04608
2004/4/2 17:00,0,0,0.86976,0.03024,0.49248,0.32544,0.07344,0,-0.07056
2004/4/2 17:15,0,0,0.85392,0.0288,0.4968,0.3744,0.07344,0,-0.07632
2004/4/2 17:30,0,0,0.86256,0.02592,0.4968,0.3888,0.07488,0,-0.09504
2004/4/2 17:45,0,0,0.86256,0.02592,0.49392,0.41184,0.07488,0,-0.09216
2004/4/2 18:00,0,0,0.85968,0.02592,0.48528,0.4104,0.072,0,-0.0864
2004/4/2 18:15,0,0,1.0728,0.03168,0.47808,0.3672,0.07632,0,-0.09792
2004/4/2 18:30,0,0,2.48256,0.0288,0.47376,0.21888,0.07488,0,-0.1944
2004/4/2 18:45,0,0,2.56752,0.3096,0.47376,0.1944,0.07776,0,-0.23472
2004/4/2 19:00,0,0,2.71008,0.36,0.45216,0.1944,0.0432,0,-0.21744
2004/4/2 19:15,0,0,2.7936,0.24048,0.45216,0.1944,0.07488,0,-0.2016
2004/4/2 19:30,0.0576,0,2.08512,0.02304,0.4248,0.3096,0.0792,0,-0.18288
2004/4/2 19:45,0,0,1.61136,0.03744,0.42912,0.40896,0.07776,0,-0.19728
2004/4/2 20:00,0,0,1.73088,0.02736,0.4176,0.35568,0.07632,0,-0.19728
2004/4/2 20:15,0.0432,0,2.2104,0.03168,0.42192,0.38304,0.072,0,-0.22752
2004/4/2 20:30,0.0144,0,2.7144,0.0216,0.42048,0.30816,0.07488,0,-0.23904
2004/4/2 20:45,0,0,3.00816,0.03024,0.41184,0.20016,0.0432,0,-0.20736
2004/4/2 21:00,0,0,2.95344,0.02592,0.40752,0.20016,0.07776,0,-0.20304
2004/4/2 21:15,0,0,3.14064,0.02448,0.42336,0.20016,0.07488,0,-0.22752
2004/4/2 21:30,0.0504,0,3.10032,0.02736,0.4032,0.19584,0.07344,0,-0.22032
2004/4/2 21:45,0.108,0,3.47904,0.02304,0.42336,0.1944,0.07632,0,-0.27072
2004/4/2 22:00,0.108,0,2.85984,0.02592,0.43488,0.1944,1.00656,0,-0.35856
2004/4/2 22:15,0.108,0,2.28528,0.0288,0.56016,0.1944,0.07776,0,-0.26208
2004/4/2 22:30,0.55008,0,1.9368,0.02736,0.54576,0.1944,0.07776,0,-0.2664
2004/4/2 22:45,0.46656,0,1.49184,0.0216,0.56016,0.1944,0.0432,0,-0.14688
2004/4/2 23:00,0.37872,0,1.7856,0.02592,0.45072,0.1944,0.0936,0,-0.072
2004/4/2 23:15,0.45504,0,1.76688,0.02448,0.5328,0.1944,0.10944,0,-0.17136
2004/4/2 23:30,0.36144,0,0.7992,0.02736,0.49536,0.1944,0.38016,0,-0.18864
2004/4/2 23:45,0.28944,0,0.6192,0.02736,0.48528,0.1944,0.07488,0,-0.0864
2004/4/3 0:00,0.31392,0,0.66528,0.02448,0.45504,0.1944,0.07776,0,-0.08352
2004/4/3 0:15,0.31248,0,0.64944,0.03024,0.45504,0.1944,0.07776,0,-0.08064
2004/4/3 0:30,0.30816,0,0.65952,0.02736,0.38448,0.1944,0.0432,0,-0.11088
2004/4/3 0:45,0.19152,0,0.4608,0.0216,0,0.1944,0.07632,0,0.0216
2004/4/3 1:00,0,0,0.17136,0.02304,0.3672,0.1944,0.07344,0,0.0288
2004/4/3 1:15,0,0,0.17568,0.02736,0.44928,0.1944,0.072,0,0.01872
2004/4/3 1:30,0,0,0.16992,0.02304,0.08784,0.1944,0.07776,0,0.0576
2004/4/3 1:45,0,0,0.17424,0.02304,0.2448,0.1944,0.072,0,0.0432
2004/4/3 2:00,0,0,0.16416,0.02736,0.44928,0.1944,0.07344,0,0.02016
2004/4/3 2:15,0,0,0.1728,0.0216,0.09792,0.1944,0.07488,0,0.0648
2004/4/3 2:30,0,0,0.17136,0.02304,0.19008,0.1944,0.07776,0,0.04752
2004/4/3 2:45,0,0,0.17136,0.02736,0.45648,0.1944,0.07632,0,0.0144
2004/4/3 3:00,0,0,0.16272,0.02304,0.16272,0.1944,0.07632,0,0.0576
2004/4/3 3:15,0,0,0.16272,0.0216,0.1152,0.1944,0.07488,0,0.07056
2004/4/3 3:30,0,0,0.17568,0.03312,0.43632,0.1944,0.0792,0,0.0144
2004/4/3 3:45,0,0,0.1728,0.02448,0.12672,0.1944,0.0432,0,0.06336
2004/4/3 4:00,0,0,0.17424,0.02304,0.144,0.1944,0.07632,0,0.04896
2004/4/3 4:15,0,0,0.1656,0.02592,0.44496,0.1944,0.07488,0,0.01728
2004/4/3 4:30,0,0,0.17136,0.02304,0.1368,0.1944,0.0792,0,0.05328
2004/4/3 4:45,0,0,0.17568,0.02304,0.10224,0.1944,0.07344,0,0.06768
2004/4/3 5:00,0,0,0.17424,0.02304,0.44064,0.1944,0.0792,0,0.01152
2004/4/3 5:15,0,0,0.16704,0.02448,0.14688,0.1944,0.07632,0,0.06336
2004/4/3 5:30,0,0,0.17568,0.0216,0.1008,0.1944,0.08064,0,0.05184
2004/4/3 5:45,0,0,0.16704,0.02448,0.44352,0.1944,0.04608,0,0.02592
2004/4/3 6:00,0,0,0.17856,0.02304,0.16272,0.1944,0.08064,0,0.04464
2004/4/3 6:15,0,0,0.17568,0.0216,0.07488,0.1944,0.07488,0,0.0576
2004/4/3 6:30,0,0,0.1728,0.03024,0.42192,0.1944,0.07776,0,0.02016
2004/4/3 6:45,0,0,0.16992,0.02304,0.22608,0.1944,0.07632,0,0.0504
2004/4/3 7:00,0,0,0.16992,0.0216,0.01296,0.20304,0.07632,0,0.0648
2004/4/3 7:15,0,0,0.17424,0.02592,0.44784,0.1944,0.07488,0,0.02016
2004/4/3 7:30,0,0,0.216,0.02304,0.18576,0.1944,0.07776,0,0.03024
2004/4/3 7:45,0,0,0.4968,0.47376,0.08352,0.1944,0.08352,0,-0.04752
2004/4/3 8:00,0.0792,0,0.64944,0.75744,0.45936,0.1944,0.08496,0,-0.11088
2004/4/3 8:15,0.108,0,0.6264,0.68544,0.25344,0.1944,0.08352,0,0.01872
2004/4/3 8:30,0.0576,0,0.67392,1.11888,0.02016,0.1944,0.08064,0,0.00432
2004/4/3 8:45,0,0,1.296,0.02448,0.4392,0.1944,0.0864,0,-0.03744
2004/4/3 9:00,0,0,1.7136,0.02448,0.42192,0.1944,0.0792,0,-0.0648
2004/4/3 9:15,0,0,1.40688,0.0216,0.05616,0.1944,0.08064,0,0.01152
2004/4/3 9:30,0,0,1.44144,0.02448,0.20736,0.1944,0.10944,0,0.00144
2004/4/3 9:45,0.0216,0,1.58544,0.03024,0.4464,0.1944,0.36144,0,-0.09792
2004/4/3 10:00,0,0,0.96912,0.0216,0.12672,0.1944,0.0792,0,0.05328
2004/4/3 10:15,0,0,1.0512,0.02448,0.14688,0.1944,0.07632,0,0.04032
2004/4/3 10:30,0,0,1.01376,0.03312,0.44064,0.1944,0.08208,0,0.01008
2004/4/3 10:45,0,0,1.00368,0.02448,0.20592,0.1944,0.08784,0,0.0432
2004/4/3 11:00,0,0,0.99072,0.0216,0.06192,0.3312,0.07776,0,0.04032
2004/4/3 11:15,0,0,0.97344,0.02736,0.44064,0.39168,0.07632,0,-0.02592
2004/4/3 11:30,0,0,0.99792,0.0288,0.34416,0.19872,0.08064,0,0.02304
2004/4/3 11:45,0,0,0.97488,0.56016,0.01584,0.21456,0.04608,0,-0.02304
2004/4/3 12:00,0,0,0.36288,0.2376,0.38304,0.41616,0.0792,0,-0.0144
2004/4/3 12:15,0,0,0.34992,0.02736,0.42048,0.4032,0.07776,0,-0.01728
2004/4/3 12:30,0,0,0.34416,0.0216,0,0.40896,0.08208,0,0.03168
2004/4/3 12:45,0,0,0.39456,0.02592,0.32544,0.3744,0.0792,0,-0.0072
2004/4/3 13:00,0,0,1.15344,0.0288,0.4464,0.41184,0.07488,0,-0.0288
2004/4/3 13:15,0,0,1.13328,0.02448,0.09072,0.25776,0.07776,0,0.0432
2004/4/3 13:30,0,0,1.16208,0.02448,0.20016,0.21456,0.07488,0,0.0288
2004/4/3 13:45,0,0,1.152,0.02736,0.45648,0.21456,0.07344,0,0.00576
2004/4/3 14:00,0,0,1.1448,0.02448,0.19584,0.324,0.07776,0,0.01152
2004/4/3 14:15,0,0,1.3896,0.02304,0.09072,0.4104,0.07776,0,-0.01872
2004/4/3 14:30,0,0,1.52784,0.02592,0.45792,0.22176,0.07488,0,-0.04896
2004/4/3 14:45,0,0,1.53936,0.02448,0.29088,0.1944,0.11232,0,-0.03168
2004/4/3 15:00,0,0,1.34352,0.0216,0.03744,0.1944,0.08352,0,0.00864
2004/4/3 15:15,0,0,1.14048,1.21248,0.48528,0.26064,0.08496,0,-0.11664
2004/4/3 15:30,0,0,1.1448,0.3024,0.35424,0.41184,0.08064,0,-0.05616
2004/4/3 15:45,0,0,1.17504,0.0216,0,0.38592,0.08352,0,0.0288
2004/4/3 16:00,0,0,1.32768,0.03024,0.38016,0.1944,0.08064,0,-0.0072
2004/4/3 16:15,0,0,0.82656,0.03456,0.39312,0.1944,0.08064,0,0.02448
2004/4/3 16:30,0,0,0.34848,0.0216,0,0.1944,0.0792,0,0.06912
2004/4/3 16:45,0,0,0.34416,0.02448,0.3456,0.21168,0.04608,0,0.03168
2004/4/3 17:00,0,0,0.24192,0.02736,0.42048,0.1944,0.07776,0,0.02448
2004/4/3 17:15,0,0,0.40752,0.0216,0,0.1944,0.0792,0,0.03456
2004/4/3 17:30,0,0,0.47376,0.02304,0.3024,0.38016,0.07776,0,-0.04176
2004/4/3 17:45,0.0432,0,0.63504,0.02736,0.43344,0.40464,0.07776,0,-0.09936
2004/4/3 18:00,0.108,0,0.71712,0.02448,0.4176,0.39168,0.07776,0,-0.10944
2004/4/3 18:15,0.0936,0,1.58688,1.9584,0.14832,0.25488,0.07776,0,-0.09648
2004/4/3 18:30,0.04608,0,2.41632,1.08,0.10512,0.39744,0.08208,0,-0.2232
2004/4/3 18:45,0,0,2.3976,0.18432,0.43776,0.20304,0.07488,0,-0.16416
2004/4/3 19:00,0,0,1.84752,0.04032,0.4104,0.1944,0.07488,0,-0.16128
2004/4/3 19:15,0,0,1.60416,0.03168,0.44496,0.1944,0.07776,0,-0.16272
2004/4/3 19:30,0.02736,0,1.63872,0.036,0.53712,0.1944,0.07776,0,-0.20304
2004/4/3 19:45,0.6192,0,1.16496,0.03456,0.54144,0.1944,0.0792,0,-0.2232
2004/4/3 20:00,0.32112,0,2.2536,0.02592,0.49824,0.1944,0.07488,0,-0.21168
2004/4/3 20:15,1.66896,0,2.35728,0.0288,0.50544,0.1944,0.072,0,-0.32112
2004/4/3 20:30,1.5696,0,2.32272,0.0288,0.51984,0.1944,0.07776,0,-0.31104
2004/4/3 20:45,1.35792,0,2.14416,0.02736,0.49968,0.1944,0.072,0,-0.25488
2004/4/3 21:00,1.19664,0,1.92672,0.02448,0.47808,0.19584,0.07776,0,-0.18864
2004/4/3 21:15,1.25568,0,1.79568,0.02304,0.46944,0.1944,0.07056,0,-0.20592
2004/4/3 21:30,1.11312,0,1.89504,0.02592,0.44064,0.1944,0.07632,0,-0.19152
2004/4/3 21:45,1.05984,0,2.0016,0.0216,0.01872,0.1944,0.0432,0,-0.14112
2004/4/3 22:00,0.89712,0,2.06064,0.02448,0.32112,0.1944,0.07632,0,-0.18144
2004/4/3 22:15,1.01376,0,1.99296,0.02736,0.45216,0.1944,0.94896,0,-0.37296
2004/4/3 22:30,0.84816,0,2.1024,0.0288,0.37872,0.20304,0.07776,0,-0.30096
2004/4/3 22:45,0.10944,0,1.84896,0.0216,0,0.29952,0.072,0,-0.16848
2004/4/3 23:00,0.108,0,1.836,0.02736,0.37008,0.1944,0.07344,0,-0.20016
2004/4/3 23:15,0.0504,0,0.83808,0.03168,0.43488,0.1944,0.47376,0,-0.13392
2004/4/3 23:30,0,0,0.51696,0.02448,0.11808,0.1944,0.07344,0,-0.00432
2004/4/3 23:45,0,0,0.42624,0.02592,0.2016,0.21456,0.0792,0,-0.00288
2004/4/4 0:00,0,0,0.1728,0.0288,0.44352,0.19728,0.07776,0,0.01872
2004/4/4 0:15,0,0,0.17136,0.02448,0.15408,0.1944,0.07776,0,0.0648
2004/4/4 0:30,0,0,0.1728,0.02448,0.1296,0.1944,0.08064,0,0.0576
2004/4/4 0:45,0,0,0.17136,0.03168,0.45792,0.1944,0.08208,0,0.01872
2004/4/4 1:00,0,0,0.1656,0.02304,0.20592,0.1944,0.07632,0,0.04032
2004/4/4 1:15,0,0,0.1728,0.02304,0.07776,0.1944,0.08352,0,0.06768
2004/4/4 1:30,0,0,0.17568,0.02736,0.45504,0.1944,0.0792,0,0.01728
2004/4/4 1:45,0,0,0.16848,0.02736,0.24336,0.1944,0.08208,0,0.04608
2004/4/4 2:00,0,0,0.16704,0.0216,0.02736,0.1944,0.08208,0,0.06336
2004/4/4 2:15,0,0,0.16704,0.03024,0.4464,0.1944,0.04752,0,0.02016
2004/4/4 2:30,0,0,0.16848,0.02592,0.22752,0.1944,0.08064,0,0.04032
2004/4/4 2:45,0,0,0.1728,0.02304,0.04464,0.1944,0.08208,0,0.07632
2004/4/4 3:00,0,0,0.1728,0.03168,0.44352,0.1944,0.08064,0,0.01728
2004/4/4 3:15,0,0,0.17424,0.0216,0.20304,0.1944,0.08208,0,0.04752
2004/4/4 3:30,0,0,0.1728,0.0216,0.05904,0.1944,0.0792,0,0.0648
2004/4/4 3:45,0,0,0.16128,0.0288,0.4392,0.1944,0.08208,0,0.0216
2004/4/4 4:00,0,0,0.17136,0.02592,0.23184,0.1944,0.0792,0,0.03888
2004/4/4 4:15,0,0,0.1728,0.0216,0.02592,0.1944,0.08064,0,0.06336
2004/4/4 4:30,0,0,0.1728,0.03168,0.43344,0.1944,0.08496,0,0.01728
2004/4/4 4:45,0,0,0.17136,0.0216,0.10512,0.1944,0.08064,0,0.06192
2004/4/4 5:00,0,0,0.16416,0.02592,0.14688,0.1944,0.05328,0,0.06336
2004/4/4 5:15,0,0,0.17856,0.0288,0.44496,0.1944,0.07776,0,0.01728
2004/4/4 5:30,0,0,0.16992,0.02448,0.11952,0.1944,0.08496,0,0.0504
2004/4/4 5:45,0,0,0.16704,0.02448,0.12816,0.1944,0.08352,0,0.0648
2004/4/4 6:00,0,0,0.16848,0.0288,0.4392,0.1944,0.08352,0,0.01728
2004/4/4 6:15,0,0,0.16704,0.0216,0.1152,0.1944,0.08208,0,0.06624
2004/4/4 6:30,0,0,0.1728,0.02304,0.12672,0.1944,0.0864,0,0.05328
2004/4/4 6:45,0,0,0.1728,0.02736,0.43488,0.1944,0.08208,0,0.00576
2004/4/4 7:00,0,0,0.17136,0.02448,0.12672,0.20304,0.04896,0,0.05472
2004/4/4 7:15,0,0,0.16992,0.02448,0.13536,0.1944,0.08208,0,0.05616
2004/4/4 7:30,0,0,0.19008,0.02448,0.42048,0.1944,0.08496,0,0.01728
2004/4/4 7:45,0,0,0.69984,0.06912,0.036,0.1944,0.08208,0,0.01728
2004/4/4 8:00,0,0,0.79344,2.15136,0.2592,0.1944,0.08352,0,-0.14832
2004/4/4 8:15,0,0,1.75248,0.44928,0.44496,0.1944,0.08784,0,-0.2088
2004/4/4 8:30,1.00656,0,2.13696,0.70848,0.08496,0.1944,0.0792,0,-0.3528
2004/4/4 8:45,1.94256,0,3.03408,0.02736,0.22896,0.1944,0.08496,0,-0.37584
2004/4/4 9:00,0.19152,0,3.05424,0.03024,0.44496,0.1944,0.08208,0,-0.25344
2004/4/4 9:15,0.0936,0,2.72304,0.02448,0.09504,0.1944,0.99216,0,-0.28944
2004/4/4 9:30,0.108,0,2.79072,0.02448,0.14256,0.1944,0.62496,0,-0.27072
2004/4/4 9:45,0.0936,0,2.09088,0.02736,0.42768,0.1944,0.3672,0,-0.19728
2004/4/4 10:00,0,0,1.512,0.02304,0.13968,0.1944,0.0792,0,-0.04608
2004/4/4 10:15,0,0,1.15488,0.02592,0.14256,0.39888,0.08064,0,0.00576
2004/4/4 10:30,0,0,1.19664,0.02448,0.42048,0.23904,0.08208,0,-0.0072
2004/4/4 10:45,0,0,1.20672,0.02304,0.10944,0.1944,0.07632,0,0.03888
2004/4/4 11:00,0,0,1.19808,0.02448,0.14256,0.1944,0.10512,0,0.02736
2004/4/4 11:15,0,0,1.17648,0.03024,0.42624,0.27936,0.08208,0,-0.00864
2004/4/4 11:30,0,0,1.152,0.02592,0.18288,0.4752,0.08208,0,-0.01152
2004/4/4 11:45,0,0,1.14624,0.02448,0.05616,0.3744,0.08064,0,0.02304
2004/4/4 12:00,0,0,1.15776,0.0216,0.4248,0.20304,0.08352,0,-0.00864
2004/4/4 12:15,0,0,0.468,0.02736,0.288,0.30672,0.07632,0,0.0072
2004/4/4 12:30,0,0,0.49248,0.85104,0.0576,0.30384,0.08064,0,-0.1224
2004/4/4 12:45,0,0,0.63936,0.31968,0.37008,0.22176,0.08208,0,-0.09072
2004/4/4 13:00,0,0,0.46944,0.41184,0.396,0.30096,0.08352,0,-0.09216
2004/4/4 13:15,0,0,0.5832,0.04752,0.00144,0.396,0.08352,0,-0.02016
2004/4/4 13:30,0,0,0.53712,0.03024,0.24624,0.40032,0.08352,0,-0.03456